This is the latest recevied weather packets stored in our database for station/object N2OCK. If no packets are shown the sender has not sent any weather packets the latest 10 day(s).
| Time | Temp. | Humidity | Pressure | Rain* | Wind** | Luminosity | Snow |
|---|---|---|---|---|---|---|---|
| 1777503977 | 10.56° C | 84% | 1011.4 hPa | 0 mm | - | 55 W/m² | - |
| 1777503674 | 10.56° C | 84% | 1011.3 hPa | 0 mm | - | 64 W/m² | - |
| 1777503370 | 10.56° C | 84% | 1011.2 hPa | 0 mm | - | 70 W/m² | - |
| 1777503066 | 10.56° C | 85% | 1011.4 hPa | 0 mm | - | 71 W/m² | - |
| 1777502764 | 10.56° C | 85% | 1011.2 hPa | 0 mm | - | 62 W/m² | - |
| 1777502460 | 10.56° C | 85% | 1011.6 hPa | 0 mm | - | 63 W/m² | - |
| 1777502158 | 10.56° C | 85% | 1011.6 hPa | 0 mm | - | 79 W/m² | - |
| 1777501856 | 10.56° C | 85% | 1011.6 hPa | 0 mm | - | 69 W/m² | - |
| 1777501552 | 10.56° C | 85% | 1011.8 hPa | 0 mm | - | 67 W/m² | - |
| 1777501249 | 10.56° C | 85% | 1011.7 hPa | 0 mm | - | 56 W/m² | - |
| 1777500947 | 10.56° C | 85% | 1011.8 hPa | 0 mm | - | 49 W/m² | - |
| 1777500644 | 10.56° C | 85% | 1011.7 hPa | 0 mm | - | 52 W/m² | - |
| 1777500341 | 10.56° C | 84% | 1011.7 hPa | 0 mm | - | 60 W/m² | - |
| 1777500037 | 10.56° C | 84% | 1012 hPa | 0 mm | - | 66 W/m² | - |
| 1777499733 | 10.56° C | 83% | 1012.2 hPa | 0 mm | - | 72 W/m² | - |
| 1777499430 | 10.56° C | 83% | 1012.4 hPa | 0 mm | - | 85 W/m² | - |
| 1777499129 | 11.11° C | 82% | 1012.3 hPa | 0 mm | - | 95 W/m² | - |
| 1777498825 | 11.11° C | 81% | 1012.4 hPa | 0 mm | - | 108 W/m² | - |
| 1777498521 | 11.11° C | 81% | 1012.4 hPa | 0 mm | - | 122 W/m² | - |
| 1777498217 | 11.11° C | 81% | 1012.5 hPa | 0 mm | - | 127 W/m² | - |
| 1777497916 | 11.11° C | 81% | 1012.5 hPa | 0 mm | - | 132 W/m² | - |
| 1777497611 | 11.11° C | 81% | 1012.3 hPa | 0 mm | - | 149 W/m² | - |
| 1777497308 | 11.67° C | 81% | 1012.6 hPa | 0 mm | - | 169 W/m² | - |
| 1777497004 | 11.67° C | 80% | 1012.7 hPa | 0 mm | - | 183 W/m² | - |
| 1777496701 | 11.67° C | 80% | 1013 hPa | 0 mm | - | 174 W/m² | - |
* Rain latest hour (hover to see other rain measurements)
** Current wind speed in m/s (hover to see current wind gust speed)